| time (UTC) | temp C | wind direction | speed KPH | gust KPH | rain 1hr cm | rain 24hr cm | rain mn cm | humidity % | barometer mb |
| 20260507034430 | 11 | 235 | 3.2 | 11.3 | 0.00 | 1.24 | 0.18 | 96 | 1011.4 |
| 20260507032930 | 11 | 194 | 1.6 | 12.9 | 0.00 | 1.24 | 0.18 | 96 | 1011.5 |
| 20260507031430 | 11 | 212 | 4.8 | 11.3 | 0.00 | 1.24 | 0.18 | 97 | 1011.2 |
| 20260507025931 | 11 | 204 | 6.4 | 9.7 | 0.00 | 1.24 | 0.18 | 97 | 1011.1 |
| 20260507024354 | 11 | 252 | 1.6 | 3.2 | 0.00 | 1.24 | 0.18 | 98 | 1011.0 |
| 20260507022833 | 11 | 253 | 0.0 | 3.2 | 0.00 | 1.24 | 0.18 | 98 | 1011.0 |
| 20260507020915 | 11 | 253 | 0.0 | 0.0 | 0.00 | 1.24 | 0.18 | 98 | 1011.1 |
| 20260507015413 | 11 | 253 | 0.0 | 0.0 | 0.00 | 1.24 | 0.18 | 97 | 1010.9 |
| 20260507013705 | 11 | 253 | 0.0 | 0.0 | 0.00 | 1.24 | 0.18 | 97 | 1011.2 |
| 20260507012203 | 11 | 253 | 0.0 | 3.2 | 0.00 | 1.24 | 0.18 | 97 | 1011.1 |
| 20260507010626 | 11 | 253 | 0.0 | 0.0 | 0.00 | 1.24 | 0.18 | 97 | 1011.0 |
| 20260507005124 | 11 | 253 | 0.0 | 0.0 | 0.00 | 1.24 | 0.18 | 97 | 1011.0 |
| 20260507003614 | 11 | 253 | 0.0 | 1.6 | 0.00 | 1.22 | 0.18 | 96 | 1010.5 |
| 20260507002115 | 11 | 253 | 0.0 | 4.8 | 0.00 | 1.22 | 0.18 | 97 | 1010.9 |
| 20260507000603 | 11 | 253 | 0.0 | 6.4 | 0.00 | 1.22 | 0.18 | 97 | 1010.6 |
| 20260506235100 | 11 | 358 | 0.0 | 3.2 | 0.00 | 1.24 | 0.18 | 97 | 1010.1 |
| 20260506233559 | 11 | 358 | 0.0 | 4.8 | 0.05 | 1.27 | 0.18 | 97 | 1009.4 |
| 20260506232054 | 11 | 46 | 0.0 | 3.2 | 0.10 | 1.27 | 0.18 | 97 | 1009.2 |
| 20260506230555 | 11 | 53 | 0.0 | 11.3 | 0.15 | 1.27 | 0.18 | 97 | 1009.2 |
| 20260506225057 | 11 | 293 | 1.6 | 14.5 | 0.20 | 1.27 | 0.18 | 97 | 1008.8 |
| 20260506223555 | 12 | 110 | 1.6 | 4.8 | 0.20 | 1.22 | 0.10 | 96 | 1009.3 |
| 20260506222054 | 12 | 202 | 1.6 | 12.9 | 0.28 | 1.17 | 0.10 | 97 | 1010.5 |
| 20260506220542 | 12 | 187 | 4.8 | 14.5 | 0.23 | 1.12 | 0.03 | 97 | 1011.0 |
| 20260506215043 | 12 | 254 | 3.2 | 11.3 | 0.20 | 1.07 | 1.07 | 96 | 1010.4 |
| 20260506213540 | 12 | 181 | 3.2 | 11.3 | 0.28 | 0.99 | 1.02 | 96 | 1010.5 |
| 20260506212049 | 12 | 257 | 4.8 | 14.5 | 0.28 | 0.91 | 0.91 | 96 | 1010.0 |
| 20260506210543 | 12 | 250 | 6.4 | 6.4 | 0.38 | 0.89 | 0.89 | 96 | 1009.2 |
| 20260506205046 | 12 | 78 | 3.2 | 6.4 | 0.43 | 0.86 | 0.86 | 95 | 1008.4 |
| 20260506203549 | 12 | 91 | 1.6 | 6.4 | 0.28 | 0.71 | 0.71 | 96 | 1008.9 |
| 20260506202045 | 12 | 11 | 0.0 | 6.4 | 0.20 | 0.64 | 0.64 | 95 | 1009.0 |
| 20260506200533 | 12 | 179 | 3.2 | 11.3 | 0.08 | 0.51 | 0.51 | 94 | 1009.4 |
| 20260506195036 | 12 | 249 | 0.0 | 4.8 | 0.00 | 0.43 | 0.43 | 93 | 1008.6 |
| 20260506193538 | 12 | 313 | 0.0 | 3.2 | 0.00 | 0.43 | 0.43 | 93 | 1008.2 |
| 20260506192039 | 12 | 264 | 1.6 | 3.2 | 0.00 | 0.43 | 0.43 | 92 | 1008.1 |
| 20260506190553 | 12 | 127 | 0.0 | 6.4 | 0.00 | 0.43 | 0.43 | 93 | 1007.6 |
| 20260506185016 | 12 | 317 | 0.0 | 3.2 | 0.00 | 0.43 | 0.43 | 91 | 1008.0 |
| 20260506183525 | 12 | 173 | 0.0 | 9.7 | 0.00 | 0.43 | 0.43 | 91 | 1007.1 |
| 20260506182001 | 12 | 44 | 3.2 | 11.3 | 0.00 | 0.48 | 0.43 | 92 | 1007.5 |
| 20260506180501 | 12 | 134 | 4.8 | 11.3 | 0.08 | 0.51 | 0.43 | 92 | 1007.5 |
| 20260506175018 | 12 | 50 | 1.6 | 14.5 | 0.20 | 0.53 | 0.43 | 90 | 1007.6 |
| 20260506173500 | 12 | 91 | 11.3 | 14.5 | 0.30 | 0.58 | 0.43 | 89 | 1008.0 |
| 20260506172102 | 12 | 31 | 3.2 | 11.3 | 0.33 | 0.64 | 0.43 | 90 | 1008.2 |
| 20260506170457 | 13 | 83 | 3.2 | 4.8 | 0.30 | 0.56 | 0.38 | 85 | 1009.2 |
| 20260506165021 | 13 | 253 | 1.6 | 9.7 | 0.18 | 0.46 | 0.25 | 84 | 1009.3 |
| 20260506163440 | 14 | 89 | 0.0 | 3.2 | 0.08 | 0.36 | 0.13 | 81 | 1008.6 |
| 20260506161936 | 16 | 84 | 0.0 | 6.4 | 0.05 | 0.33 | 0.10 | 67 | 1007.9 |
| 20260506160437 | 18 | 76 | 0.0 | 14.5 | 0.00 | 0.28 | 0.05 | 55 | 1007.8 |
| 20260506154937 | 19 | 107 | 0.0 | 3.2 | 0.00 | 0.28 | 0.05 | 54 | 1007.9 |
| 20260506153438 | 20 | 348 | 0.0 | 9.7 | 0.00 | 0.28 | 0.05 | 54 | 1007.6 |
| 20260506151937 | 20 | 312 | 3.2 | 9.7 | 0.00 | 0.28 | 0.05 | 55 | 1007.6 |
| 20260506150411 | 20 | 322 | 1.6 | 4.8 | 0.00 | 0.28 | 0.05 | 52 | 1007.8 |
| 20260506144903 | 21 | 350 | 0.0 | 6.4 | 0.00 | 0.28 | 0.05 | 50 | 1008.0 |
| 20260506143402 | 21 | 169 | 0.0 | 3.2 | 0.00 | 0.28 | 0.05 | 48 | 1008.3 |
| 20260506141901 | 22 | 255 | 0.0 | 3.2 | 0.00 | 0.28 | 0.05 | 47 | 1008.5 |
| 20260506140402 | 22 | 267 | 3.2 | 4.8 | 0.00 | 0.28 | 0.05 | 46 | 1008.5 |
| 20260506134903 | 23 | 228 | 1.6 | 11.3 | 0.00 | 0.28 | 0.05 | 47 | 1008.7 |
| 20260506133408 | 23 | 54 | 3.2 | 9.7 | 0.00 | 0.28 | 0.05 | 46 | 1008.8 |
| 20260506131902 | 23 | 116 | 3.2 | 11.3 | 0.00 | 0.28 | 0.05 | 46 | 1008.9 |
| 20260506130353 | 23 | 54 | 4.8 | 11.3 | 0.00 | 0.28 | 0.05 | 47 | 1009.1 |
| 20260506124859 | 23 | 217 | 3.2 | 12.9 | 0.00 | 0.28 | 0.05 | 48 | 1009.4 |
| 20260506123352 | 23 | 284 | 0.0 | 9.7 | 0.00 | 0.28 | 0.05 | 47 | 1009.5 |
| 20260506121852 | 22 | 215 | 1.6 | 22.5 | 0.00 | 0.28 | 0.05 | 51 | 1010.1 |
| 20260506120354 | 21 | 258 | 3.2 | 12.9 | 0.00 | 0.28 | 0.05 | 53 | 1010.2 |
| 20260506114848 | 20 | 270 | 3.2 | 12.9 | 0.00 | 0.28 | 0.05 | 54 | 1010.2 |
| 20260506113349 | 22 | 282 | 3.2 | 16.1 | 0.00 | 0.28 | 0.05 | 52 | 1010.2 |
| 20260506111848 | 21 | 300 | 6.4 | 17.7 | 0.00 | 0.28 | 0.05 | 53 | 1010.0 |
| 20260506110348 | 21 | 259 | 0.0 | 20.9 | 0.00 | 0.28 | 0.05 | 54 | 1010.5 |
| 20260506104848 | 21 | 277 | 8.0 | 16.1 | 0.00 | 0.28 | 0.05 | 56 | 1010.4 |
| 20260506103349 | 20 | 240 | 8.0 | 14.5 | 0.00 | 0.28 | 0.05 | 59 | 1010.3 |
| 20260506101853 | 19 | 217 | 6.4 | 16.1 | 0.00 | 0.28 | 0.05 | 61 | 1010.5 |
| 20260506100348 | 20 | 210 | 4.8 | 14.5 | 0.00 | 0.28 | 0.05 | 61 | 1010.5 |
| 20260506094848 | 18 | 273 | 0.0 | 14.5 | 0.00 | 0.28 | 0.05 | 63 | 1010.3 |
| 20260506093348 | 20 | 248 | 6.4 | 24.1 | 0.00 | 0.28 | 0.05 | 62 | 1010.5 |
| 20260506091848 | 17 | 208 | 11.3 | 20.9 | 0.00 | 0.28 | 0.05 | 66 | 1010.7 |
| 20260506090349 | 18 | 252 | 4.8 | 17.7 | 0.00 | 0.28 | 0.05 | 66 | 1010.4 |
| 20260506084848 | 17 | 302 | 0.0 | 16.1 | 0.00 | 0.28 | 0.05 | 67 | 1010.4 |
| 20260506083352 | 17 | 279 | 3.2 | 22.5 | 0.00 | 0.28 | 0.05 | 70 | 1010.3 |
| 20260506081849 | 17 | 258 | 6.4 | 17.7 | 0.00 | 0.28 | 0.05 | 71 | 1010.4 |
| 20260506080411 | 17 | 187 | 6.4 | 16.1 | 0.00 | 0.28 | 0.05 | 72 | 1010.4 |
| 20260506073348 | 16 | 248 | 9.7 | 14.5 | 0.00 | 0.28 | 0.05 | 77 | 1010.2 |
| 20260506071848 | 16 | 298 | 6.4 | 17.7 | 0.00 | 0.28 | 0.05 | 75 | 1010.3 |
| 20260506070349 | 16 | 278 | 4.8 | 20.9 | 0.00 | 0.28 | 0.05 | 79 | 1010.1 |
| 20260506061851 | 13 | 211 | 0.0 | 12.9 | 0.00 | 0.28 | 0.05 | 87 | 1010.0 |
| 20260506060351 | 13 | 225 | 3.2 | 6.4 | 0.00 | 0.28 | 0.05 | 88 | 1010.3 |
| 20260506050409 | 11 | 136 | 0.0 | 3.2 | 0.00 | 0.28 | 0.05 | 98 | 1010.1 |
| 20260506044851 | 10 | 188 | 1.6 | 1.6 | 0.00 | 0.28 | 0.05 | 96 | 1010.0 |
| 20260506043348 | 10 | 189 | 0.0 | 1.6 | 0.00 | 0.28 | 0.05 | 96 | 1010.0 |
| 20260506041847 | 10 | 189 | 0.0 | 0.0 | 0.00 | 0.28 | 0.05 | 96 | 1009.6 |
| 20260506040348 | 10 | 189 | 0.0 | 0.0 | 0.00 | 0.28 | 0.05 | 95 | 1009.5 |